DMSP 5D-2 F11 DEB, 28335

Orbit data source: Space-Track

DMSP 5D-2 F11 DEB, 28335 is space debris in SSO originally from a launch on Thu, 28 Nov 1991 UTC launched from the Air Force Western Test Range (AFWTR). Debris objects in space refer to the collection of defunct objects orbiting the Earth. Examples of debris include non-operational satellites, rocket bodies, and fragments generated from explosions, collisions, or faulty payload assembly.

Loading next visibility...
Identifier
28335, 1991-082AY
Orbit
SSO
Country
Flag of USUS
Related business
Manufacturer
Unknown
Mission
Spacecraft
Bus & Motor
Unknown
Mass
Unknown
Launch date (UTC)
1991-11-28 (35 years ago)
Launch vehicle
Unknown
Launch site
Air Force Western Test Range (AFWTR)
Object type
Payload
Rocket body
Debris
Shape & HBR
Unknown shape, 0.1 m
Radar Cross Section
Small (<0.1 m²)

Expand to show TLE details & history
Last TLE update: 5 days ago

TLE from 5 days ago
0 DMSP 5D-2 F11 DEB
1 28335U 91082AY  26259.01612350  .00002888  00000-0  78036-3 0  9996
2 28335  98.5531 335.6276 0007507 339.6144  20.4748 14.48560710688154
Epoch: 2026-09-16T00:23Z
TLE epoch observation values (Epoch: 2026-09-16T00:23:13.070Z)
Latitude
-0.00002°
Longitude
-25.15063°
Altitude
728.312 km
Speed
7.494 km/s
True Right ascension
22h 22m 30s
True Declination
0° 00' 00"
Sunlit
Object was in full shadow at epoch
Visualization orbit readout
Latitude
Unknown
Longitude
Unknown
Altitude
Unknown
Speed
Unknown
Apparent Right ascension
Unknown
Apparent Declination
Unknown
Sunlit
N/A
Visualization observer readout
Local Sidereal Time
04:57:34
Azimuth
Unknown
Elevation
Unknown
Doppler factor
Unknown
Orbital elements
Apogee altitude
732.8 km
Perigee altitude
722.132 km
Semi-major axis
7,105.603 km
Eccentricity
0.00075
Inclination
98.5531°
RAAN
335.6276°
Arg. of periapsis
339.6144°
True anomaly
20.50492°
Mean anomaly
20.4748°
Eccentric anomaly
20.48986°
Mean motion
3.62361 °/min
Orbital period
99.35 mins
BSTAR
0.00078036
Loading maneuver chart data...
Computing Atmospheric mass density...

Documentation

Showing up to 5 results
|